Weather History for Wooster, OH

Change the Weather History Date:

Friday, April 11, 2014

  Actual Average Record
Temperature  
Mean Temperature 52 °F -  
Max Temperature 61 °F 57 °F 75 °F (2002)
Min Temperature 43 °F 36 °F 28 °F (1998)
Degree Days  
Heating Degree Days 14    
Growing Degree Days 2 (Base 50)    
Moisture  
Dew Point 45 °F    
Average Humidity 84    
Maximum Humidity 96    
Minimum Humidity 46    
Precipitation  
Precipitation 0.63 in - - ()
Sea Level Pressure  
Sea Level Pressure 30.01 in    
Wind  
Wind Speed 5 mph (NNE)    
Max Wind Speed 9 mph    
Max Gust Speed -    
Visibility 6 miles    
Events Rain    
Averages and records for this station are not official NWS values.
T = Trace of Precipitation, MM = Missing Value Source: NWS Daily Summary

Daily Weather History Graph

Daily Weather History Graph

Search for Another Location

Airport:

Trip Planner

Search our weather history database for the weather conditions in past years. The results will help you decide how hot, cold, wet, or windy it might be!

Date:

Astronomy

Apr. 11, 2014 Rise Set
Actual Time 6:54 AM EDT 8:02 PM EDT
Civil Twilight 6:26 AM EDT 8:31 PM EDT
Nautical Twilight 5:53 AM EDT 9:04 PM EDT
Astronomical Twilight 5:17 AM EDT 9:40 PM EDT
Moon 4:40 PM EDT (4/11) 4:50 AM EDT (4/11)
Length of Visible Light 14h 04m
Length of Day
13h 08m
Waxing Gibbous, 87% of the Moon is Illuminated
Apr 11
Waxing Gibbous
Apr 15
Full
Apr 22
Last Quarter
Apr 29
New
May 6
First Quarter

Hourly Weather History & Observations

Time (EDT) Temp. Windchill Dew Point Humidity Pressure Visibility Wind Dir Wind Speed Gust Speed Precip Events Conditions
12:36 AM 53.1 °F - 50.0 °F 89% 29.97 in 5.0 mi NNW 9.2 mph - 0.06 in Rain Rain
12:43 AM 52.0 °F - 50.0 °F 93% 29.98 in 4.0 mi NNW 8.1 mph - 0.08 in Rain Rain
12:56 AM 52.0 °F - 50.0 °F 93% 29.99 in 3.0 mi NW 5.8 mph - 0.12 in Rain Rain
1:26 AM 51.1 °F - 50.0 °F 96% 29.98 in 3.0 mi Calm Calm - 0.09 in Rain Rain
1:37 AM 51.1 °F - 48.9 °F 92% 29.98 in 3.0 mi Calm Calm - 0.10 in Rain Light Rain
1:56 AM 51.1 °F - 50.0 °F 96% 29.98 in 2.5 mi Calm Calm - 0.13 in Rain Rain
2:10 AM 51.1 °F - 50.0 °F 96% 29.98 in 1.8 mi SSW 3.5 mph - 0.03 in Rain Rain
2:21 AM 51.1 °F - 48.9 °F 92% 29.98 in 2.5 mi Calm Calm - 0.04 in Rain Light Rain
2:56 AM 51.1 °F - 48.9 °F 92% 29.98 in 1.8 mi South 3.5 mph - 0.04 in   Overcast
3:11 AM 51.1 °F - 50.0 °F 96% 29.98 in 2.0 mi Calm Calm - N/A   Overcast
3:26 AM 51.1 °F - 50.0 °F 96% 29.98 in 1.8 mi Calm Calm - 0.00 in Rain Light Rain
3:33 AM 51.1 °F - 48.9 °F 92% 29.98 in 2.5 mi Calm Calm - 0.00 in Rain Light Rain
3:44 AM 51.1 °F - 48.9 °F 92% 29.98 in 3.0 mi NNE 5.8 mph - 0.00 in   Overcast
3:51 AM 51.8 °F - 48.2 °F 88% 29.98 in 2.5 mi North 5.8 mph - 0.00 in Rain Light Rain
3:56 AM 51.1 °F - 48.9 °F 92% 29.98 in 3.0 mi North 6.9 mph - 0.01 in Rain Light Rain
4:25 AM 48.9 °F - 43.0 °F 80% 29.98 in 10.0 mi NNE 5.8 mph - 0.01 in Rain Light Rain
4:56 AM 48.0 °F - 44.1 °F 86% 29.98 in 7.0 mi ESE 4.6 mph - 0.03 in Rain Light Rain
5:56 AM 48.0 °F - 44.1 °F 86% 29.99 in 10.0 mi SE 3.5 mph - 0.01 in   Overcast
6:38 AM 46.9 °F - 44.1 °F 90% 29.98 in 6.0 mi SE 4.6 mph - 0.04 in Rain Light Rain
6:56 AM 46.9 °F - 44.1 °F 90% 29.99 in 4.0 mi SSE 4.6 mph - 0.08 in Rain Rain
7:56 AM 46.0 °F 42.5 °F 42.1 °F 86% 30.05 in 3.0 mi WNW 6.9 mph - 0.10 in Rain Rain
8:12 AM 46.0 °F 41.9 °F 43.0 °F 89% 30.05 in 2.0 mi North 8.1 mph - 0.07 in Rain Heavy Rain
8:20 AM 46.0 °F 41.9 °F 43.0 °F 89% 30.04 in 3.0 mi North 8.1 mph - 0.09 in Rain Rain
8:56 AM 46.0 °F 43.9 °F 41.0 °F 83% 30.03 in 10.0 mi ENE 4.6 mph - 0.09 in   Overcast
9:56 AM 46.0 °F 43.1 °F 43.0 °F 89% 30.02 in 10.0 mi ENE 5.8 mph - 0.02 in Rain Light Rain
10:19 AM 46.9 °F - 42.1 °F 83% 30.02 in 10.0 mi ENE 6.9 mph - 0.00 in   Overcast
10:56 AM 46.9 °F - 42.1 °F 83% 30.03 in 10.0 mi East 5.8 mph - 0.00 in   Overcast
11:56 AM 48.9 °F - 43.0 °F 80% 30.02 in 10.0 mi East 9.2 mph - N/A   Overcast
12:56 PM 48.9 °F - 42.1 °F 77% 30.02 in 10.0 mi ENE 8.1 mph - N/A   Overcast
1:56 PM 50.0 °F - 43.0 °F 77% 30.03 in 10.0 mi ESE 4.6 mph - N/A   Overcast
2:49 PM 54.0 °F - 46.9 °F 77% 30.02 in 10.0 mi North 4.6 mph - 0.00 in   Mostly Cloudy
2:56 PM 54.0 °F - 46.9 °F 77% 30.03 in 10.0 mi Variable 3.5 mph - 0.00 in   Mostly Cloudy
3:56 PM 57.9 °F - 46.0 °F 65% 30.01 in 10.0 mi NNW 5.8 mph - N/A   Partly Cloudy
4:56 PM 57.9 °F - 44.1 °F 60% 30.02 in 10.0 mi NW 5.8 mph - N/A   Clear
5:56 PM 60.1 °F - 42.1 °F 51% 30.02 in 10.0 mi NW 4.6 mph - N/A   Clear
6:56 PM 59.0 °F - 37.9 °F 46% 30.03 in 10.0 mi NW 6.9 mph - N/A   Clear
7:56 PM 54.0 °F - 41.0 °F 62% 30.04 in 10.0 mi Calm Calm - N/A   Clear
8:56 PM 48.0 °F - 41.0 °F 77% 30.07 in 10.0 mi Calm Calm - N/A   Clear
9:56 PM 45.0 °F - 39.9 °F 82% 30.10 in 10.0 mi Calm Calm - N/A   Clear
10:56 PM 43.0 °F - 37.9 °F 82% 30.11 in 10.0 mi Calm Calm - N/A   Clear
11:56 PM 43.0 °F - 39.9 °F 89% 30.11 in 10.0 mi Calm Calm - N/A   Clear